IRIDIUM 33 DEB, 38474

Orbit data source: Space-Track

IRIDIUM 33 DEB, 38474 is space debris in LEO originally from a launch on Sun, 14 Sep 1997 UTC launched from the Tyuratam Missile And Space Complex (TTMTR). The debris from Iridium 33, an American commercial communications satellite, has been tracked extensively since its accidental collision with the defunct Russian satellite Cosmos 2251 in 2009. This event, occurring at high speed in low Earth orbit (LEO), generated thousands of pieces of space debris, significantly increasing the risk of further collisions. The Iridium 33 debris cloud has impacted space traffic management and orbital debris mitigation strategies, making it a subject of ongoing study in space situational awareness.

Loading next visibility...
Identifier
38474, 1997-051AAB
Orbit
LEO
Country
Flag of USUS
Related business
Manufacturer
Unknown
Mission
Spacecraft
Bus & Motor
Unknown
Mass
Unknown
Launch date (UTC)
1997-09-14 (28 years ago)
Launch vehicle
Unknown
Launch site
Tyuratam Missile And Space Complex (TTMTR)
Object type
Payload
Rocket body
Debris
Shape & HBR
Unknown shape, 0.1 m
Radar Cross Section
Small (<0.1 m²)

Expand to show TLE details & history
Last TLE update: 3 days ago

TLE from 3 days ago
0 IRIDIUM 33 DEB
1 38474U 97051AAB 25308.95040124  .00002521  00000-0  63745-3 0  9999
2 38474  86.3472  26.5191 0025352 209.2612 150.7174 14.50441511647706
Epoch: 2025-11-04T22:48Z
TLE epoch observation values (Epoch: 2025-11-04T22:48:34.667Z)
Latitude
-0.00005°
Longitude
-0.05542°
Altitude
742.999 km
Speed
7.475 km/s
True Right ascension
01h 46m 04s
True Declination
0° 00' 00"
Sunlit
Object was in full shadow at epoch
Visualization orbit readout
Latitude
Unknown
Longitude
Unknown
Altitude
Unknown
Speed
Unknown
Apparent Right ascension
Unknown
Apparent Declination
Unknown
Sunlit
N/A
Visualization observer readout
Local Sidereal Time
11:53:39
Azimuth
Unknown
Elevation
Unknown
Doppler factor
Unknown
Orbital elements
Apogee altitude
739.148 km
Perigee altitude
703.151 km
Semi-major axis
7,099.286 km
Eccentricity
0.00254
Inclination
86.3472°
RAAN
26.5191°
Arg. of periapsis
209.2612°
True anomaly
150.8591°
Mean anomaly
150.7174°
Eccentric anomaly
150.78829°
Mean motion
3.62845 °/min
Orbital period
99.22 mins
BSTAR
0.00063745
Loading maneuver chart data...
Computing Atmospheric mass density...

Documentation

Showing up to 5 results
|